This is the latest recevied weather packets stored in our database for station/object KC4MCQ-10. If no packets are shown the sender has not sent any weather packets the latest 10 day(s).
| Time | Temp. | Humidity | Pressure | Rain* | Wind** | Luminosity | Snow |
|---|---|---|---|---|---|---|---|
| 1787673871 | 30.56° C | 79% | 1018 hPa | 27.18 mm | 0 m/s | - | - |
| 1787673270 | 30.56° C | 79% | 1018.1 hPa | 27.18 mm | 0.89 m/s, 215° | - | - |
| 1787672655 | 31.11° C | 80% | 1018.2 hPa | 27.18 mm | 0.45 m/s, 269° | - | - |
| 1787672054 | 30° C | 81% | 1018.2 hPa | 27.18 mm | 0.89 m/s, 230° | - | - |
| 1787671453 | 30° C | 81% | 1018.3 hPa | 27.18 mm | 0.89 m/s, 225° | - | - |
| 1787670851 | 30° C | 82% | 1018.4 hPa | 27.18 mm | 0.89 m/s, 229° | - | - |
| 1787670250 | 29.44° C | 84% | 1018.4 hPa | 27.18 mm | 0.89 m/s, 274° | - | - |
| 1787669649 | 28.89° C | 84% | 1018.3 hPa | 27.18 mm | 1.34 m/s, 262° | - | - |
| 1787669048 | 28.89° C | 84% | 1018.2 hPa | 27.18 mm | 0.89 m/s, 279° | - | - |
| 1787668443 | 28.33° C | 86% | 1018.2 hPa | 27.18 mm | 1.34 m/s, 213° | - | - |
| 1787667836 | 27.78° C | 88% | 1018.1 hPa | 27.18 mm | 0.45 m/s, 231° | - | - |
| 1787667235 | 27.22° C | 88% | 1018.1 hPa | 27.18 mm | 0.89 m/s, 254° | - | - |
| 1787666634 | 26.67° C | 90% | 1018.1 hPa | 27.18 mm | 1.34 m/s, 239° | - | - |
| 1787666033 | 26.11° C | 91% | 1018 hPa | 27.18 mm | 0.45 m/s, 232° | - | - |
| 1787665430 | 25° C | 92% | 1018 hPa | 27.18 mm | 0 m/s | - | - |
| 1787664821 | 24.44° C | 93% | 1018.1 hPa | 27.18 mm | 0.89 m/s, 248° | - | - |
| 1787664218 | 24.44° C | 93% | 1018.1 hPa | 27.18 mm | 0 m/s | - | - |
| 1787663618 | 23.89° C | 92% | 1018.1 hPa | 27.18 mm | 0.89 m/s, 123° | - | - |
| 1787663017 | 23.33° C | 92% | 1018.1 hPa | 27.18 mm | 0.45 m/s, 122° | - | - |
| 1787662415 | 23.33° C | 92% | 1017.9 hPa | 27.18 mm | 0.45 m/s, 136° | - | - |
| 1787661801 | 23.33° C | 92% | 1018.1 hPa | 27.18 mm | 0.45 m/s, 146° | - | - |
| 1787661201 | 23.33° C | 92% | 1018.2 hPa | 26.67 mm | 0.89 m/s, 128° | - | - |
| 1787659399 | 23.89° C | 91% | 1018.1 hPa | 10.16 mm | 1.34 m/s, 69° | - | - |
| 1787657597 | 24.44° C | 90% | 1017.8 hPa | 0.76 mm | 0.89 m/s, 306° | - | - |
| 1787656989 | 24.44° C | 90% | 1017.5 hPa | 0 mm | 0.89 m/s, 281° | - | - |
* Rain latest 24 hours (hover to see other rain measurements)
** Current wind speed in m/s (hover to see current wind gust speed)